Holland, MI

12:21 AM EDT on March 26, 2017 (GMT -0400)
Tulip City

Weather History for KBIV - February, 2013

Change the Weather History Date:

Friday, February 15, 2013

  Actual Average Record
Temperature  
Mean Temperature 27 °F 28 °F  
Max Temperature 31 °F 35 °F 60 °F (1954)
Min Temperature 23 °F 22 °F -9 °F (1963)
Degree Days  
Heating Degree Days 38 37  
Month to date heating degree days 600 571  
Since 1 July heating degree days 3776 4045  
Cooling Degree Days 0 0  
Month to date cooling degree days 0 0  
Year to date cooling degree days 0 0  
Moisture  
Dew Point 17 °F    
Average Humidity 69    
Maximum Humidity 85    
Minimum Humidity 53    
Precipitation  
Precipitation T in 0.07 in 0.69 in (1990)
Month to date precipitation 1.31 0.83  
Year to date precipitation 4.47 2.92  
Sea Level Pressure  
Sea Level Pressure 30.08 in    
Wind  
Wind Speed 6 mph (NW)    
Max Wind Speed 14 mph    
Max Gust Speed 18 mph    
Visibility 7 miles    
Events Snow    
T = Trace of Precipitation, MM = Missing Value Source: NWS Daily Summary

Daily Weather History Graph

Daily Weather History Graph

Search for Another Location

Airport or City:

Trip Planner

Search our weather history database for the weather conditions in past years. The results will help you decide how hot, cold, wet, or windy it might be!

Date:

Astronomy

Feb. 15, 2013 Rise Set
Actual Time 7:41 AM EST 6:16 PM EST
Civil Twilight 7:12 AM EST 6:45 PM EST
Nautical Twilight 6:39 AM EST 7:18 PM EST
Astronomical Twilight 6:06 AM EST 7:51 PM EST
Moon 10:07 AM EST (2/15) No Moon Set
Length of Visible Light 11h 33m
Length of Day
10h 35m
Waxing Crescent, 30% of the Moon is Illuminated
Feb 15
Waxing Crescent
Feb 17
First Quarter
Feb 25
Full
Mar 4
Last Quarter
Mar 11
New

Hourly Weather History & Observations

Time (EST) Temp. Windchill Dew Point Humidity Pressure Visibility Wind Dir Wind Speed Gust Speed Precip Events Conditions
12:12 AM 30.2 °F 23.4 °F 24.8 °F 80% 29.93 in 6.0 mi NNW 6.9 mph - 0.01 in Snow Light Snow
12:27 AM 30.2 °F 26.7 °F 24.8 °F 80% 29.93 in 9.0 mi NNW 3.5 mph - 0.01 in Snow Light Snow
12:53 AM 30.0 °F 23.2 °F 23.0 °F 75% 29.96 in 10.0 mi NNW 6.9 mph - 0.01 in   Overcast
1:53 AM 28.0 °F 24.2 °F 19.9 °F 72% 29.97 in 10.0 mi North 3.5 mph - N/A   Overcast
2:05 AM 28.4 °F 24.6 °F 19.4 °F 69% 29.94 in 10.0 mi North 3.5 mph - N/A   Mostly Cloudy
2:13 AM 26.6 °F - 19.4 °F 74% 29.95 in 10.0 mi Calm Calm - N/A   Mostly Cloudy
2:32 AM 26.6 °F 21.2 °F 19.4 °F 74% 29.95 in 10.0 mi NNW 4.6 mph - 0.00 in Snow Light Snow
2:53 AM 28.0 °F - 21.0 °F 75% 29.98 in 10.0 mi Calm Calm - 0.00 in   Overcast
3:53 AM 28.0 °F 24.2 °F 21.0 °F 75% 29.99 in 9.0 mi NNW 3.5 mph - 0.00 in   Overcast
4:15 AM 28.4 °F 24.6 °F 21.2 °F 74% 29.97 in 10.0 mi NNW 3.5 mph - 0.00 in   Overcast
4:53 AM 28.0 °F 24.2 °F 21.0 °F 75% 30.01 in 10.0 mi North 3.5 mph - 0.00 in Snow Light Snow
5:16 AM 26.6 °F 18.2 °F 17.6 °F 69% 30.00 in 9.0 mi NNW 8.1 mph - 0.00 in Snow Light Snow
5:53 AM 26.1 °F 19.4 °F 18.0 °F 71% 30.05 in 3.0 mi North 5.8 mph - 0.00 in Snow Light Snow
6:44 AM 24.8 °F 20.5 °F 17.6 °F 74% 30.04 in 3.0 mi Variable 3.5 mph - 0.00 in Snow Light Snow
6:51 AM 24.8 °F - 17.6 °F 74% 30.04 in 1.8 mi Calm Calm - 0.00 in Snow Light Snow
6:53 AM 25.0 °F 20.7 °F 19.0 °F 78% 30.07 in 1.8 mi Variable 3.5 mph - 0.00 in Snow Light Snow
7:08 AM 24.8 °F 19.1 °F 19.4 °F 80% 30.04 in 2.0 mi NNW 4.6 mph - 0.00 in Snow Light Snow
7:26 AM 24.8 °F - 19.4 °F 80% 30.05 in 4.0 mi Calm Calm - 0.00 in Snow Light Snow
7:53 AM 25.0 °F - 19.0 °F 78% 30.08 in 5.0 mi Calm Calm - 0.00 in Snow Light Snow
8:14 AM 26.6 °F 18.2 °F 17.6 °F 69% 30.06 in 10.0 mi NW 8.1 mph - 0.00 in   Overcast
8:53 AM 27.0 °F 19.5 °F 15.1 °F 61% 30.10 in 10.0 mi NNW 6.9 mph - 0.00 in   Overcast
9:53 AM 28.0 °F 20.0 °F 14.0 °F 56% 30.12 in 10.0 mi NNW 8.1 mph 16.1 mph N/A   Overcast
10:53 AM 27.0 °F 20.5 °F 16.0 °F 63% 30.14 in 8.0 mi North 5.8 mph - 0.00 in Snow Light Snow
11:20 AM 26.6 °F 18.2 °F 15.8 °F 64% 30.11 in 9.0 mi NNW 8.1 mph - 0.00 in Snow Light Snow
11:53 AM 28.0 °F 19.3 °F 15.1 °F 58% 30.14 in 10.0 mi NW 9.2 mph - 0.00 in   Overcast
12:53 PM 28.0 °F 21.7 °F 15.1 °F 58% 30.15 in 10.0 mi NNW 5.8 mph - 0.00 in   Overcast
1:53 PM 28.0 °F 21.7 °F 14.0 °F 56% 30.14 in 10.0 mi NW 5.8 mph - N/A   Overcast
2:23 PM 26.6 °F 20.0 °F 15.8 °F 64% 30.11 in 7.0 mi NW 5.8 mph - 0.00 in Snow Light Snow
2:53 PM 27.0 °F 16.1 °F 15.1 °F 61% 30.14 in 8.0 mi WNW 12.7 mph 18.4 mph 0.00 in Snow Light Snow
3:19 PM 26.6 °F 17.5 °F 12.2 °F 55% 30.12 in 9.0 mi WNW 9.2 mph - 0.00 in Snow Light Snow
3:40 PM 26.6 °F 15.7 °F 15.8 °F 64% 30.12 in 2.5 mi NW 12.7 mph 17.3 mph 0.00 in Snow Light Snow
3:53 PM 26.1 °F 18.4 °F 16.0 °F 66% 30.15 in 4.0 mi WNW 6.9 mph - 0.00 in Snow Light Snow
4:18 PM 26.6 °F 20.0 °F 15.8 °F 64% 30.12 in 9.0 mi NW 5.8 mph - 0.00 in Snow Light Snow
4:53 PM 26.1 °F 16.8 °F 15.1 °F 63% 30.16 in 5.0 mi WNW 9.2 mph - 0.00 in Snow Light Snow
5:07 PM 26.6 °F 19.1 °F 15.8 °F 64% 30.13 in 3.0 mi NW 6.9 mph - 0.00 in Snow Light Snow
5:27 PM 26.6 °F 18.2 °F 15.8 °F 64% 30.13 in 10.0 mi NW 8.1 mph - 0.00 in   Overcast
5:53 PM 26.1 °F 18.4 °F 15.1 °F 63% 30.17 in 5.0 mi WNW 6.9 mph - 0.00 in Snow Light Snow
6:53 PM 26.1 °F 19.4 °F 15.1 °F 63% 30.18 in 10.0 mi West 5.8 mph - 0.00 in   Overcast
7:53 PM 26.1 °F 18.4 °F 12.0 °F 55% 30.18 in 10.0 mi WNW 6.9 mph - 0.00 in   Overcast
8:53 PM 26.1 °F 20.5 °F 14.0 °F 60% 30.17 in 10.0 mi NW 4.6 mph - N/A   Overcast
9:53 PM 26.1 °F 18.4 °F 14.0 °F 60% 30.17 in 9.0 mi West 6.9 mph - 0.00 in   Overcast
10:18 PM 26.6 °F 22.6 °F 12.2 °F 55% 30.13 in 10.0 mi NW 3.5 mph - N/A   Overcast
10:53 PM 24.1 °F 17.0 °F 16.0 °F 71% 30.15 in 10.0 mi ENE 5.8 mph - N/A   Overcast
11:33 PM 24.8 °F - 17.6 °F 74% 30.12 in 2.5 mi Calm Calm - 0.00 in Snow Light Snow
11:38 PM 24.8 °F - 17.6 °F 74% 30.12 in 1.2 mi Calm Calm - 0.00 in Snow Light Snow
11:48 PM 24.8 °F - 17.6 °F 74% 30.11 in 2.0 mi Calm Calm - 0.00 in Snow Light Snow
11:53 PM 24.1 °F - 18.0 °F 77% 30.15 in 4.0 mi Calm Calm - 0.00 in Snow Light Snow